[[{"header":{"parameterUnit":"m.s-1","parameterCategory":1,"la1":30.2991,"la2":30.254,"lo1":-89.0895,"lo2":-89.0444,"dy":0.0017,"dx":0.0017,"nx":28,"ny":28,"refTime":"2024-02-04T03:00:00:Z","depth":0,"parameterNumber":2,"parameterNumberName":"U-component_of_WINDS"},"data":[0,0,0,0,0,0,0,0,0,0,0,0,0,0,0,0,0,0,0,0,0,0,0,0,0,0,0,0,0,0,0,0,0,0,0,0,0,0,0,0,0,0,0,0,0,0,0,0,0,0,0,0,0,0,0,0,0,0,1.8154,1.8151,0,1.7889,1.7886,1.7883,1.7653,1.7651,1.7648,1.7645,1.7379,1.7375,1.737,0,0,0,0,0,0,0,0,0,0,0,0,0,1.8464,1.846,1.8154,1.8151,1.8148,1.789,1.7886,1.7882,1.7654,1.765,1.7647,1.7644,1.7381,1.7375,1.737,0,0,0,0,0,0,0,0,0,0,0,0,0,1.8278,1.8458,1.8155,1.8002,1.7986,1.789,1.7886,1.7882,1.7654,1.765,1.7646,1.7643,1.7383,1.7376,1.7369,1.7405,0,0,1.7348,1.7345,0,0,0,0,0,0,0,0,1.8289,1.8267,1.8028,1.8013,1.7994,1.78,1.7897,1.7722,1.7655,1.7781,1.7645,1.7641,1.7523,1.7504,1.7463,1.7393,1.7381,1.7347,1.7343,1.734,1.7338,0,0,0,0,0,0,0,1.8302,1.8277,1.8049,1.8025,1.8004,1.7948,1.7917,1.7863,1.7677,1.7769,1.7752,1.7723,1.7513,1.7471,1.7455,1.7377,1.7347,1.7341,1.7337,1.7334,1.732,1.7323,0,0,0,0,0,0,1.8338,1.8289,1.8058,1.8042,1.8135,1.7945,1.7911,1.7867,1.7677,1.7644,1.7727,1.7714,1.7484,1.7464,1.7445,1.7473,1.734,1.7334,1.733,1.7316,1.732,1.7324,0,0,0,0,0,0,1.8345,1.8319,1.8069,1.816,1.8124,1.7944,1.7896,1.7863,1.7821,1.7645,1.7611,1.7718,1.748,1.7455,1.7416,1.7461,1.733,1.7324,1.7311,1.7317,1.7322,1.7532,0,0,0,0,0,0,1.8355,1.8323,1.8335,1.8162,1.812,1.8044,1.7899,1.7861,1.7809,1.7789,1.7628,1.7597,1.7475,1.7427,1.7409,1.7449,1.7319,1.7307,1.7314,1.7321,1.7521,1.7545,1.7565,0,0,0,0,0,1.8367,1.8407,1.8337,1.8311,1.8131,1.8047,1.8023,1.7881,1.7813,1.7824,1.771,1.7602,1.7459,1.7425,1.7403,1.7442,1.7303,1.7312,1.732,1.7511,1.754,1.7564,0,0,0,0,0,0,1.8593,1.8381,1.8302,1.8286,1.8186,1.8009,1.8018,1.7917,1.7835,1.782,1.7648,1.7613,1.7593,1.7512,1.7479,1.7465,1.7366,1.7371,1.7519,1.7545,1.7567,1.7588,1.7313,0,0,0,0,0,1.864,1.8589,1.8407,1.8411,1.8364,1.82,1.8158,1.8057,1.7947,1.7904,1.7787,1.7686,1.7617,1.7576,1.7503,1.7506,1.7468,1.7522,1.7544,1.7563,1.757,1.7564,1.7586,1.7352,1.7352,1.7352,0,0,1.8739,1.8617,1.8596,1.8453,1.8363,1.8315,1.8166,1.8122,1.8084,1.7897,1.7853,1.7764,1.7639,1.7621,1.7607,1.7553,1.7625,1.7574,1.759,1.7586,1.7575,1.7597,1.7617,1.7358,1.7357,1.7356,0,0,1.8894,1.8796,1.8788,1.87,1.8565,1.8454,1.8453,1.8289,1.8222,1.8173,1.8032,1.7984,1.787,1.7786,1.7729,1.7847,1.7745,1.7828,1.7946,1.7942,1.796,1.7976,1.8018,1.8036,1.7835,1.7836,1.7836,0,1.9035,1.8954,1.8797,1.876,1.8701,1.8526,1.8517,1.8439,1.8289,1.8253,1.8193,1.8044,1.7948,1.7907,1.7936,1.7895,1.7887,1.7848,1.797,1.7984,1.7996,1.8035,1.8051,1.7847,1.7845,1.7844,1.7843,0,1.9134,1.908,1.9089,1.8945,1.8887,1.8865,1.8704,1.8664,1.8566,1.8463,1.8415,1.8292,1.819,1.8172,1.8078,1.8117,1.8088,1.8002,1.79,1.8032,1.8066,1.8079,1.7863,1.7859,1.7855,1.7853,0,0,1.9429,1.9194,1.9201,1.9132,1.8968,1.8924,1.8892,1.879,1.8759,1.8659,1.8629,1.8534,1.8452,1.8387,1.828,1.8277,1.8378,1.819,1.8184,1.823,1.8413,1.8481,1.8501,1.8307,1.8309,1.8311,1.8424,0,1.9558,1.949,1.9346,1.9324,1.9272,1.9102,1.9074,1.8971,1.8872,1.8813,1.8703,1.8639,1.8535,1.8495,1.8483,1.8369,1.8413,1.8358,1.8278,1.8278,1.8318,1.8518,1.859,1.8703,1.8436,1.8438,1.844,0,1.9702,1.961,1.9583,1.9418,1.9391,1.9369,1.9262,1.9208,1.9086,1.9014,1.8939,1.8821,1.8777,1.8681,1.8619,1.8585,1.8543,1.8481,1.8482,1.8472,1.8369,1.8515,1.8736,1.8754,1.8459,1.8457,1.8456,0,1.9922,1.979,1.9756,1.9702,1.951,1.9498,1.9418,1.9291,1.9238,1.9145,1.9109,1.9013,1.8961,1.8889,1.8748,1.8691,1.8702,1.8594,1.8641,1.8646,1.8655,1.8657,1.8874,1.8625,1.8624,1.8624,1.8624,0,2.0083,2.0074,1.9852,1.9832,1.9814,1.9647,1.9635,1.9539,1.9427,1.9385,1.9232,1.9196,1.901,1.8952,1.884,1.8806,1.8783,1.8724,1.8695,1.8739,1.8748,1.8712,1.8702,1.8628,1.8627,1.8626,1.8626,0,2.0328,2.0179,2.013,1.995,1.9904,1.99,1.9746,1.9719,1.9608,1.9557,1.9535,1.9363,1.9286,1.9136,1.9019,1.8943,1.8934,1.8882,1.8976,1.8958,1.9015,1.9012,1.9219,1.9238,1.8976,1.8979,1.8981,0,2.0443,2.043,2.0247,2.0207,2.0132,2.0069,2.0013,1.9846,1.9795,1.9652,1.9643,1.9554,1.9474,1.9359,1.9224,1.9132,1.9077,1.9156,1.9063,1.9107,1.908,1.9084,1.9081,1.9179,1.9182,1.9185,1.9188,0,2.0662,2.0588,2.0512,2.041,2.0347,2.0259,2.0164,2.0139,1.995,1.99,1.9818,1.9756,1.9633,1.9547,1.9434,1.9351,1.9239,1.9217,1.9223,1.927,1.9326,1.9297,1.9035,1.9214,1.9212,1.921,1.9208,1.9207,2.0846,2.0826,2.0694,2.0614,2.0523,2.0436,2.0402,2.0285,2.0214,2.01,2.0005,1.9932,1.9806,1.9643,1.9566,1.9506,1.9452,1.9462,1.9464,1.947,1.9489,1.9332,1.9485,1.9484,1.9483,1.9482,1.9482,0,2.1059,2.0964,2.0892,2.0761,2.0698,2.0593,2.048,2.0435,2.0372,2.0263,2.0186,2.0092,2.0005,1.9861,1.9763,1.9742,1.9688,1.9722,1.9724,1.9706,1.9542,1.9547,1.9768,1.9768,1.9768,1.9768,1.9768,1.9767,2.1163,2.1124,2.1034,2.0948,2.0852,2.0777,2.0722,2.064,2.0552,2.0453,2.038,2.0285,2.0161,2.0052,1.9968,1.9927,1.9899,1.9951,1.9895,1.9745,1.9718,1.9693,1.9696,1.9945,1.9946,2.0063,2.0065,2.0066]},{"header":{"parameterUnit":"m.s-1","parameterCategory":1,"la1":30.2991,"la2":30.254,"lo1":-89.0895,"lo2":-89.0444,"dy":0.0017,"dx":0.0017,"nx":28,"ny":28,"refTime":"2024-02-04T03:00:00:Z","depth":0,"parameterNumber":3,"parameterNumberName":"V-component_of_WINDS"},"data":[0,0,0,0,0,0,0,0,0,0,0,0,0,0,0,0,0,0,0,0,0,0,0,0,0,0,0,0,0,0,0,0,0,0,0,0,0,0,0,0,0,0,0,0,0,0,0,0,0,0,0,0,0,0,0,0,0,0,3.1112,3.1114,0,3.1311,3.1313,3.1315,3.1412,3.1412,3.1412,3.1412,3.1607,3.1612,3.1617,0,0,0,0,0,0,0,0,0,0,0,0,0,3.0806,3.0811,3.1111,3.1114,3.1116,3.1311,3.1313,3.1316,3.1412,3.1412,3.1412,3.1412,3.1605,3.1611,3.1617,0,0,0,0,0,0,0,0,0,0,0,0,0,3.0965,3.0813,3.1111,3.1188,3.1197,3.131,3.1313,3.1317,3.1412,3.1412,3.1412,3.1412,3.1603,3.161,3.1618,3.1666,0,0,3.1642,3.1645,0,0,0,0,0,0,0,0,3.0956,3.0976,3.1174,3.1183,3.1193,3.1337,3.1277,3.1434,3.1412,3.133,3.1412,3.1412,3.1516,3.1531,3.1568,3.1676,3.1684,3.1642,3.1647,3.1651,3.1653,0,0,0,0,0,0,0,3.0945,3.0968,3.119,3.1177,3.1189,3.121,3.1233,3.1307,3.142,3.1337,3.1345,3.1368,3.1521,3.156,3.1573,3.1687,3.1642,3.1649,3.1654,3.1657,3.1845,3.1845,0,0,0,0,0,0,3.0922,3.0958,3.1184,3.1196,3.1072,3.1215,3.1241,3.129,3.142,3.144,3.1367,3.1371,3.1547,3.1564,3.1581,3.1647,3.165,3.1658,3.1662,3.1845,3.1845,3.1846,0,0,0,0,0,0,3.0915,3.0941,3.1176,3.1079,3.1111,3.1221,3.1276,3.1294,3.1334,3.1443,3.1463,3.1387,3.1548,3.157,3.1645,3.1655,3.1661,3.1668,3.1844,3.1845,3.1845,3.1779,0,0,0,0,0,0,3.0906,3.0938,3.096,3.1079,3.1116,3.1239,3.1277,3.1298,3.1348,3.1355,3.1467,3.1485,3.1549,3.1633,3.1653,3.1666,3.1674,3.1844,3.1845,3.1845,3.1781,3.1778,3.1775,0,0,0,0,0,3.0895,3.0931,3.096,3.0987,3.1145,3.124,3.126,3.1336,3.1349,3.137,3.144,3.1482,3.1651,3.164,3.1663,3.1679,3.1844,3.1844,3.1845,3.1783,3.1778,3.1775,0,0,0,0,0,0,3.0805,3.0948,3.0982,3.1058,3.1137,3.1256,3.1285,3.1329,3.1403,3.1406,3.1494,3.1519,3.1586,3.164,3.1626,3.1733,3.1751,3.1757,3.1696,3.1693,3.1689,3.1675,3.1681,0,0,0,0,0,3.0795,3.0863,3.0983,3.1038,3.1076,3.1174,3.1218,3.127,3.1353,3.1386,3.1462,3.1538,3.1609,3.1654,3.1725,3.179,3.1815,3.1811,3.1808,3.1805,3.1808,3.1847,3.1847,3.1848,3.1848,3.1848,0,0,3.0773,3.086,3.0896,3.1023,3.109,3.1156,3.1201,3.1268,3.1318,3.1395,3.1473,3.1531,3.1622,3.1693,3.1728,3.174,3.1814,3.1806,3.1802,3.1808,3.1848,3.1848,3.1848,3.1849,3.1848,3.1848,0,0,3.0768,3.0841,3.0896,3.0963,3.1065,3.113,3.1143,3.1257,3.13,3.138,3.144,3.1498,3.1618,3.1681,3.1729,3.175,3.1791,3.177,3.1752,3.1789,3.1789,3.179,3.1798,3.1799,3.1773,3.1773,3.1773,0,3.0727,3.0833,3.0917,3.0983,3.1037,3.1114,3.1169,3.1229,3.1347,3.1381,3.1394,3.1548,3.1614,3.1702,3.1707,3.1743,3.176,3.1758,3.1783,3.1784,3.1786,3.1794,3.1797,3.177,3.177,3.1771,3.1771,0,3.0778,3.085,3.0881,3.0999,3.1055,3.1115,3.1207,3.1253,3.1301,3.1364,3.1444,3.1528,3.1618,3.1642,3.1687,3.1736,3.1741,3.1767,3.1787,3.1781,3.1791,3.1795,3.1766,3.1767,3.1768,3.1768,0,0,3.072,3.0886,3.0896,3.0951,3.107,3.1126,3.1189,3.1281,3.1319,3.1398,3.1453,3.1554,3.158,3.1634,3.1687,3.1719,3.1732,3.1742,3.1746,3.1738,3.1791,3.1771,3.1773,3.176,3.1761,3.1761,3.1783,0,3.0732,3.0852,3.0931,3.1019,3.1086,3.1161,3.1216,3.1294,3.1355,3.1418,3.1484,3.1555,3.1584,3.1617,3.1653,3.1722,3.1743,3.1722,3.1809,3.1811,3.1785,3.1778,3.1756,3.1773,3.1788,3.1788,3.1789,0,3.0761,3.0843,3.0938,3.1053,3.1084,3.1132,3.1223,3.1284,3.1373,3.1415,3.1477,3.1532,3.16,3.1614,3.1708,3.1692,3.1732,3.1772,3.1775,3.1785,3.1799,3.1789,3.178,3.1783,3.1795,3.1795,3.1794,0,3.071,3.0843,3.0919,3.0963,3.1098,3.113,3.1187,3.1277,3.1328,3.1406,3.144,3.1524,3.1569,3.1632,3.1708,3.1711,3.1794,3.1815,3.1829,3.1827,3.1843,3.1841,3.1841,3.1868,3.1868,3.1868,3.1868,0,3.0714,3.077,3.0898,3.0944,3.1008,3.1098,3.1158,3.122,3.13,3.1358,3.1427,3.1479,3.1576,3.164,3.1699,3.1768,3.1788,3.1822,3.1837,3.1816,3.1812,3.1844,3.1844,3.1869,3.1869,3.1869,3.1869,0,3.0667,3.0756,3.0843,3.0965,3.0997,3.1039,3.1142,3.1189,3.1254,3.1327,3.1349,3.145,3.1529,3.1612,3.1717,3.1757,3.1823,3.1844,3.1794,3.1803,3.1813,3.1811,3.1833,3.1841,3.1862,3.1862,3.1862,0,3.0664,3.071,3.0838,3.0884,3.0941,3.1013,3.1066,3.1156,3.1208,3.1315,3.1348,3.1433,3.1506,3.1627,3.1709,3.179,3.1813,3.1816,3.1826,3.1804,3.1814,3.181,3.1815,3.1812,3.1811,3.1811,3.181,0,3.065,3.0692,3.0768,3.086,3.0923,3.0999,3.1077,3.1109,3.1214,3.1268,3.1352,3.1409,3.1519,3.1602,3.1694,3.175,3.1797,3.1807,3.1815,3.1793,3.1763,3.178,3.1785,3.1805,3.1806,3.1806,3.1807,3.1807,3.0625,3.067,3.0768,3.0851,3.092,3.0992,3.1043,3.1116,3.1189,3.1288,3.1336,3.1419,3.1508,3.1637,3.1692,3.1757,3.1771,3.1782,3.1785,3.1786,3.1781,3.1753,3.1774,3.1774,3.1775,3.1775,3.1775,0,3.0614,3.0682,3.0758,3.0867,3.0932,3.0975,3.1064,3.1115,3.1189,3.127,3.1341,3.1438,3.1519,3.1608,3.1695,3.173,3.1753,3.1749,3.1747,3.1759,3.1764,3.1749,3.1729,3.1729,3.1729,3.1729,3.1729,3.1729,3.0616,3.0694,3.0748,3.0861,3.0928,3.1014,3.1061,3.1127,3.1193,3.1299,3.1368,3.1428,3.1512,3.1605,3.1681,3.1706,3.1734,3.1723,3.1753,3.1755,3.1759,3.1762,3.1749,3.1729,3.1729,3.1744,3.1744,3.1744]}]]